Thermopolis, WY

10:36 AM MDT on April 24, 2018 (GMT -0600)
Thermopolis

Weather History for KTBX - January, 2014

Change the Weather History Date:

Wednesday, January 8, 2014

  Actual Average (KWRL) Record (KWRL)
Temperature  
Mean Temperature 22 °F -  
Max Temperature 26 °F 25 °F 62 °F (1966)
Min Temperature 19 °F 0 °F -33 °F (1979)
Degree Days  
Heating Degree Days 42    
Moisture  
Dew Point 15 °F    
Average Humidity 72    
Maximum Humidity 86    
Minimum Humidity 59    
Precipitation  
Precipitation 0.00 in - - ()
Sea Level Pressure  
Sea Level Pressure 29.96 in    
Wind  
Wind Speed 11 mph (SE)    
Max Wind Speed 17 mph    
Max Gust Speed 24 mph    
Visibility 10 miles    
Events      
Averages and records for this station are not official NWS values.
T = Trace of Precipitation, MM = Missing Value Source: NWS Daily Summary

Daily Weather History Graph

Daily Weather History Graph

Search for Another Location

Airport or City:

Astronomy

Jan. 08, 2014 Rise Set
Actual Time 7:45 AM MST 4:54 PM MST
Civil Twilight 7:13 AM MST 5:26 PM MST
Nautical Twilight 6:37 AM MST 6:02 PM MST
Astronomical Twilight 6:02 AM MST 6:36 PM MST
Moon 11:54 AM MST (1/8) 12:47 AM MST (1/8)
Length of Visible Light 10h 13m
Length of Day
9h 09m
First Quarter, 56% of the Moon is Illuminated
Jan 8
First Quarter
Jan 15
Full
Jan 23
Last Quarter
Jan 30
New
Feb 6
First Quarter

Hourly Weather History & Observations

Time (MST) Temp. Windchill Dew Point Humidity Pressure Visibility Wind Dir Wind Speed Gust Speed Precip Events Conditions
12:15 AM 26.6 °F 17.5 °F 14.0 °F 59% 30.01 in 10.0 mi SE 9.2 mph - N/A   Clear
12:35 AM 26.6 °F 16.8 °F 14.0 °F 59% 30.00 in 10.0 mi ESE 10.4 mph - N/A   Clear
12:55 AM 26.6 °F 16.2 °F 14.0 °F 59% 30.00 in 10.0 mi ESE 11.5 mph - N/A   Clear
1:15 AM 24.8 °F 14.6 °F 14.0 °F 64% 30.00 in 10.0 mi ESE 10.4 mph - N/A   Clear
1:35 AM 23.0 °F 11.7 °F 14.0 °F 68% 29.99 in 10.0 mi SE 11.5 mph - N/A   Clear
1:55 AM 23.0 °F 10.6 °F 14.0 °F 68% 29.99 in 10.0 mi ESE 13.8 mph - N/A   Clear
2:15 AM 23.0 °F 10.6 °F 14.0 °F 68% 30.00 in 10.0 mi ESE 13.8 mph - N/A   Clear
2:35 AM 23.0 °F 11.1 °F 14.0 °F 68% 30.00 in 10.0 mi ESE 12.7 mph - N/A   Clear
2:55 AM 23.0 °F 10.6 °F 14.0 °F 68% 30.00 in 10.0 mi ESE 13.8 mph - N/A   Clear
3:15 AM 23.0 °F 12.4 °F 14.0 °F 68% 30.00 in 10.0 mi ESE 10.4 mph - N/A   Clear
3:35 AM 21.2 °F 10.9 °F 12.2 °F 68% 30.00 in 10.0 mi SE 9.2 mph - N/A   Clear
3:55 AM 19.4 °F 7.2 °F 12.2 °F 74% 30.00 in 10.0 mi ESE 11.5 mph - N/A   Clear
4:15 AM 19.4 °F 6.6 °F 12.2 °F 74% 30.00 in 10.0 mi ESE 12.7 mph - N/A   Clear
4:35 AM 19.4 °F 6.6 °F 12.2 °F 74% 29.99 in 10.0 mi ESE 12.7 mph - N/A   Clear
4:55 AM 19.4 °F 6.6 °F 14.0 °F 80% 29.99 in 10.0 mi ESE 12.7 mph 17.3 mph N/A   Clear
5:15 AM 21.2 °F 10.1 °F 14.0 °F 74% 29.99 in 10.0 mi ESE 10.4 mph - N/A   Clear
5:35 AM 21.2 °F 10.1 °F 14.0 °F 74% 29.98 in 10.0 mi ESE 10.4 mph - N/A   Clear
5:55 AM 21.2 °F 13.6 °F 14.0 °F 74% 29.99 in 10.0 mi ESE 5.8 mph - N/A   Clear
6:15 AM 21.2 °F 10.9 °F 14.0 °F 74% 29.98 in 10.0 mi ESE 9.2 mph - N/A   Clear
6:35 AM 23.0 °F 14.7 °F 14.0 °F 68% 29.98 in 10.0 mi ESE 6.9 mph - N/A   Clear
6:55 AM 23.0 °F 14.7 °F 14.0 °F 68% 29.98 in 10.0 mi SE 6.9 mph - N/A   Clear
7:15 AM 23.0 °F 17.0 °F 14.0 °F 68% 29.98 in 10.0 mi SE 4.6 mph - N/A   Clear
7:35 AM 23.0 °F 13.9 °F 14.0 °F 68% 29.98 in 10.0 mi ESE 8.1 mph - N/A   Clear
7:55 AM 23.0 °F 13.9 °F 14.0 °F 68% 29.98 in 10.0 mi SE 8.1 mph - N/A   Clear
8:15 AM 21.2 °F 10.9 °F 14.0 °F 74% 29.99 in 10.0 mi SE 9.2 mph - N/A   Clear
8:35 AM 19.4 °F 7.2 °F 14.0 °F 80% 30.00 in 10.0 mi SE 11.5 mph - N/A   Clear
8:55 AM 19.4 °F 6.6 °F 14.0 °F 80% 30.00 in 10.0 mi SE 12.7 mph - N/A   Clear
9:15 AM 21.2 °F 10.9 °F 14.0 °F 74% 30.00 in 10.0 mi SSE 9.2 mph - N/A   Clear
9:35 AM 23.0 °F 13.9 °F 14.0 °F 68% 30.01 in 10.0 mi SSE 8.1 mph - N/A   Clear
9:55 AM 21.2 °F 10.1 °F 14.0 °F 74% 30.01 in 10.0 mi SSE 10.4 mph - N/A   Clear
10:15 AM 21.2 °F 8.9 °F 14.0 °F 74% 30.00 in 10.0 mi SSE 12.7 mph - N/A   Clear
10:35 AM 21.2 °F 9.5 °F 14.0 °F 74% 30.01 in 10.0 mi SSE 11.5 mph 18.4 mph N/A   Clear
10:55 AM 21.2 °F 9.5 °F 14.0 °F 74% 30.00 in 10.0 mi SSE 11.5 mph - N/A   Clear
11:15 AM 21.2 °F 8.3 °F 14.0 °F 74% 29.99 in 10.0 mi SSE 13.8 mph - N/A   Clear
11:35 AM 21.2 °F 9.5 °F 14.0 °F 74% 29.98 in 10.0 mi SSE 11.5 mph - N/A   Clear
11:55 AM 19.4 °F 6.6 °F 14.0 °F 80% 29.97 in 10.0 mi SE 12.7 mph - N/A   Clear
12:15 PM 21.2 °F 9.5 °F 14.0 °F 74% 29.96 in 10.0 mi SE 11.5 mph - N/A   Clear
12:35 PM 21.2 °F 8.9 °F 14.0 °F 74% 29.95 in 10.0 mi SE 12.7 mph - N/A   Clear
12:55 PM 21.2 °F 8.9 °F 14.0 °F 74% 29.94 in 10.0 mi SSE 12.7 mph - N/A   Clear
1:15 PM 23.0 °F 9.6 °F 14.0 °F 68% 29.94 in 10.0 mi SSE 16.1 mph - N/A   Clear
1:35 PM 23.0 °F 11.7 °F 14.0 °F 68% 29.93 in 10.0 mi SSE 11.5 mph - N/A   Clear
1:55 PM 23.0 °F 11.7 °F 15.8 °F 74% 29.93 in 10.0 mi SE 11.5 mph - N/A   Clear
2:15 PM 23.0 °F 11.1 °F 15.8 °F 74% 29.93 in 10.0 mi SSE 12.7 mph 17.3 mph N/A   Clear
2:35 PM 23.0 °F 11.7 °F 15.8 °F 74% 29.93 in 10.0 mi SE 11.5 mph - N/A   Clear
2:55 PM 23.0 °F 12.4 °F 15.8 °F 74% 29.94 in 10.0 mi SE 10.4 mph - N/A   Clear
3:15 PM 23.0 °F 11.1 °F 15.8 °F 74% 29.94 in 10.0 mi SSE 12.7 mph - N/A   Clear
3:35 PM 23.0 °F 12.4 °F 15.8 °F 74% 29.94 in 10.0 mi SE 10.4 mph - N/A   Clear
3:55 PM 23.0 °F 13.1 °F 15.8 °F 74% 29.93 in 10.0 mi SSE 9.2 mph - N/A   Clear
4:15 PM 23.0 °F 11.1 °F 15.8 °F 74% 29.93 in 10.0 mi SSE 12.7 mph - N/A   Clear
4:35 PM 23.0 °F 10.1 °F 15.8 °F 74% 29.93 in 10.0 mi South 15.0 mph - N/A   Clear
4:55 PM 24.8 °F 12.4 °F 15.8 °F 69% 29.94 in 10.0 mi South 15.0 mph - N/A   Clear
5:15 PM 26.6 °F 14.7 °F 15.8 °F 64% 29.94 in 10.0 mi South 15.0 mph - N/A   Clear
5:35 PM 26.6 °F 15.7 °F 15.8 °F 64% 29.94 in 10.0 mi South 12.7 mph - N/A   Clear
5:55 PM 26.6 °F 15.2 °F 17.6 °F 69% 29.94 in 10.0 mi South 13.8 mph - N/A   Clear
6:15 PM 26.6 °F 15.2 °F 15.8 °F 64% 29.93 in 10.0 mi SSE 13.8 mph - N/A   Clear
6:35 PM 24.8 °F 13.4 °F 15.8 °F 69% 29.94 in 10.0 mi SSE 12.7 mph - N/A   Clear
6:55 PM 24.8 °F 15.3 °F 15.8 °F 69% 29.93 in 10.0 mi SSE 9.2 mph - N/A   Clear
7:15 PM 23.0 °F 14.7 °F 15.8 °F 74% 29.93 in 10.0 mi SE 6.9 mph - N/A   Clear
7:35 PM 23.0 °F 17.0 °F 17.6 °F 80% 29.94 in 10.0 mi SSE 4.6 mph - N/A   Clear
7:55 PM 24.8 °F 16.9 °F 15.8 °F 69% 29.94 in 10.0 mi SSE 6.9 mph - N/A   Clear
8:15 PM 23.0 °F 15.8 °F 17.6 °F 80% 29.93 in 10.0 mi SSE 5.8 mph - N/A   Clear
8:35 PM 26.6 °F 16.8 °F 15.8 °F 64% 29.93 in 10.0 mi South 10.4 mph - N/A   Clear
8:55 PM 24.8 °F 16.1 °F 15.8 °F 69% 29.93 in 10.0 mi SSE 8.1 mph - N/A   Clear
9:15 PM 21.2 °F 11.7 °F 15.8 °F 80% 29.93 in 10.0 mi SE 8.1 mph - N/A   Clear
9:35 PM 23.0 °F 11.1 °F 15.8 °F 74% 29.92 in 10.0 mi South 12.7 mph - N/A   Clear
9:55 PM 24.8 °F 12.9 °F 15.8 °F 69% 29.92 in 10.0 mi South 13.8 mph 20.7 mph N/A   Clear
10:15 PM 23.0 °F 11.1 °F 15.8 °F 74% 29.91 in 10.0 mi South 12.7 mph - N/A   Clear
10:35 PM 24.8 °F 12.4 °F 15.8 °F 69% 29.90 in 10.0 mi South 15.0 mph 20.7 mph N/A   Clear
10:55 PM 21.2 °F 8.3 °F 15.8 °F 80% 29.90 in 10.0 mi South 13.8 mph - N/A   Clear
11:15 PM 19.4 °F 6.6 °F 15.8 °F 86% 29.90 in 10.0 mi South 12.7 mph - N/A   Clear
11:35 PM 23.0 °F 9.6 °F 15.8 °F 74% 29.89 in 10.0 mi SSW 16.1 mph 24.2 mph N/A   Clear
11:55 PM 23.0 °F 9.2 °F 15.8 °F 74% 29.89 in 10.0 mi SSW 17.3 mph 24.2 mph N/A   Clear